Location: Cruquius
(52.3348°N, 4.6319°E)
Time: 20:47:50
(UTC+00:00)

SJ 16-02 - Pass Details

Date: 12 May 2021
Orbit: 606 x 616 km, 75.0° (Epoch: 21 June)

Event Time Altitude Azimuth Distance (km) Brightness Sun altitude
Exits shadow 21:32:50 - 209° (SSW) 2,545 4.2 -14.3°
Reaches altitude 10° 21:34:15 10° 211° (SSW) 1,976 3.7 -14.4°
Maximum altitude 21:38:39 70° 295° (WNW) 660 1.6 -14.7°
Drops below altitude 10° 21:43:06 10° 20° (NNE) 1,991 4.5 -15.0°
Sets 21:45:22 0° 23° (NNE) 2,900 5.4 -15.2°
